• In Netherlands
  • List of Countries
  • For 7 days
  • Water Temperature
  • Satellite Maps
  • Weather Map
  • Weather Widgets
  • user-avatar
    Login

    Hourly Weather Buenos Aires

    Today, 30 March, Thursday

    Time Temperature Precipitation Wind Pressure Humidity
    00:00 +23°C° 0 mm 10 mps 760 mmHg 63%
    01:00 +23°C° 0 mm 9 mps 760 mmHg 66%
    02:00 +22°C° 0 mm 9 mps 760 mmHg 67%
    03:00 +22°C° 0 mm 9 mps 761 mmHg 67%
    04:00 +22°C° 0 mm 8 mps 761 mmHg 68%
    05:00 +22°C° 0 mm 8 mps 761 mmHg 69%
    06:00 +22°C° 0 mm 8 mps 761 mmHg 69%
    07:00 +22°C° 0 mm 8 mps 761 mmHg 68%
    08:00 +23°C° 0 mm 8 mps 761 mmHg 67%
    09:00 +24°C° 0 mm 8 mps 761 mmHg 62%
    10:00 +27°C° 0 mm 7 mps 761 mmHg 56%
    11:00 +29°C° 0 mm 7 mps 761 mmHg 51%
    12:00 +30°C° 0 mm 6 mps 760 mmHg 48%
    13:00 +32°C° 0 mm 6 mps 760 mmHg 46%
    14:00 +32°C° 0 mm 5 mps 760 mmHg 44%
    15:00 +32°C° 0 mm 5 mps 759 mmHg 45%
    16:00 +32°C° 0 mm 5 mps 759 mmHg 46%
    17:00 +30°C° 0 mm 5 mps 759 mmHg 48%
    18:00 +29°C° 0 mm 5 mps 759 mmHg 53%
    19:00 +27°C° 0 mm 5 mps 760 mmHg 58%
    20:00 +26°C° 0 mm 6 mps 760 mmHg 63%
    21:00 +26°C° 0 mm 6 mps 760 mmHg 63%
    22:00 +24°C° 0 mm 6 mps 761 mmHg 64%
    23:00 +24°C° 0 mm 7 mps 761 mmHg 64%

    Tomorrow, 31 March, Friday

    Time Temperature Precipitation Wind Pressure Humidity
    00:00 +23°C° 0 mm 7 mps 761 mmHg 67%
    01:00 +23°C° 0 mm 7 mps 761 mmHg 69%
    02:00 +22°C° 0 mm 7 mps 762 mmHg 71%
    03:00 +22°C° 0 mm 7 mps 762 mmHg 74%
    04:00 +21°C° 0 mm 7 mps 762 mmHg 77%
    05:00 +21°C° 0 mm 6 mps 762 mmHg 79%
    06:00 +22°C° 0 mm 7 mps 763 mmHg 76%
    07:00 +22°C° 0 mm 7 mps 763 mmHg 72%
    08:00 +23°C° 0 mm 7 mps 764 mmHg 69%
    09:00 +26°C° 0 mm 6 mps 764 mmHg 62%
    10:00 +28°C° 0 mm 6 mps 764 mmHg 56%
    11:00 +29°C° 0 mm 6 mps 764 mmHg 49%
    12:00 +30°C° 0 mm 5 mps 763 mmHg 46%
    13:00 +32°C° 0 mm 5 mps 763 mmHg 43%
    14:00 +33°C° 0 mm 5 mps 763 mmHg 40%
    15:00 +32°C° 0 mm 5 mps 762 mmHg 41%
    16:00 +30°C° 0 mm 5 mps 762 mmHg 43%
    17:00 +29°C° 0 mm 6 mps 762 mmHg 45%
    18:00 +28°C° 0 mm 6 mps 763 mmHg 50%
    19:00 +26°C° 0 mm 6 mps 763 mmHg 56%
    20:00 +24°C° 0 mm 6 mps 764 mmHg 61%
    21:00 +23°C° 0 mm 6 mps 764 mmHg 61%
    22:00 +23°C° 0 mm 6 mps 764 mmHg 61%
    23:00 +22°C° 0 mm 6 mps 764 mmHg 61%

    Day after tomorrow, 1 April, Saturday

    Time Temperature Precipitation Wind Pressure Humidity
    00:00 +22°C° 0 mm 6 mps 764 mmHg 62%
    01:00 +22°C° 0 mm 6 mps 764 mmHg 63%
    02:00 +21°C° 0 mm 7 mps 764 mmHg 64%
    03:00 +21°C° 0 mm 6 mps 765 mmHg 67%
    04:00 +21°C° 0 mm 6 mps 765 mmHg 71%
    05:00 +20°C° 0 mm 6 mps 765 mmHg 74%
    06:00 +21°C° 0 mm 6 mps 765 mmHg 71%
    07:00 +22°C° 0 mm 7 mps 765 mmHg 69%
    08:00 +23°C° 0 mm 7 mps 766 mmHg 66%
    09:00 +24°C° 0 mm 7 mps 765 mmHg 59%
    10:00 +27°C° 0 mm 7 mps 765 mmHg 52%
    11:00 +28°C° 0 mm 7 mps 765 mmHg 46%
    12:00 +29°C° 0 mm 6 mps 764 mmHg 43%
    13:00 +30°C° 0 mm 6 mps 764 mmHg 40%
    14:00 +32°C° 0 mm 6 mps 763 mmHg 37%
    15:00 +30°C° 0 mm 6 mps 763 mmHg 39%
    16:00 +30°C° 0 mm 5 mps 762 mmHg 40%
    17:00 +29°C° 0 mm 5 mps 762 mmHg 42%
    18:00 +28°C° 0 mm 5 mps 762 mmHg 46%
    19:00 +27°C° 0 mm 5 mps 763 mmHg 50%
    20:00 +26°C° 0 mm 6 mps 763 mmHg 55%
    21:00 +26°C° 0 mm 6 mps 763 mmHg 54%
    22:00 +26°C° 0 mm 7 mps 763 mmHg 54%
    23:00 +26°C° 0 mm 8 mps 763 mmHg 53%

    2 April, Sunday

    Time Temperature Precipitation Wind Pressure Humidity
    00:00 +24°C° 0 mm 8 mps 763 mmHg 57%
    01:00 +24°C° 0 mm 8 mps 762 mmHg 60%
    02:00 +23°C° 0 mm 8 mps 762 mmHg 63%
    03:00 +23°C° 0 mm 8 mps 761 mmHg 66%
    04:00 +22°C° 0 mm 7 mps 761 mmHg 69%
    05:00 +22°C° 0 mm 7 mps 761 mmHg 72%
    06:00 +22°C° 0 mm 7 mps 761 mmHg 71%
    07:00 +23°C° 0 mm 7 mps 762 mmHg 70%
    08:00 +23°C° 0 mm 7 mps 762 mmHg 69%
    09:00 +24°C° 0 mm 7 mps 762 mmHg 65%
    10:00 +24°C° 0 mm 6 mps 761 mmHg 62%
    11:00 +26°C° 0 mm 6 mps 761 mmHg 58%
    12:00 +26°C° 0 mm 5 mps 761 mmHg 57%
    13:00 +26°C° 0 mm 5 mps 760 mmHg 55%
    14:00 +27°C° 0 mm 4 mps 760 mmHg 54%
    15:00 +26°C° 0 mm 4 mps 759 mmHg 55%
    16:00 +26°C° 0 mm 3 mps 759 mmHg 56%
    17:00 +26°C° 0 mm 3 mps 759 mmHg 57%
    18:00 +25°C° 0 mm 3 mps 759 mmHg 62%
    19:00 +24°C° 0 mm 3 mps 759 mmHg 67%
    20:00 +22°C° 0 mm 3 mps 759 mmHg 71%
    21:00 +21°C° 0 mm 3 mps 759 mmHg 72%
    22:00 +21°C° 0 mm 3 mps 759 mmHg 73%
    23:00 +21°C° 0 mm 3 mps 759 mmHg 74%

    3 April, Monday

    Time Temperature Precipitation Wind Pressure Humidity
    00:00 +21°C° 0.1 mm 3 mps 759 mmHg 76%
    01:00 +21°C° 0.1 mm 4 mps 759 mmHg 78%
    02:00 +21°C° 0.1 mm 4 mps 759 mmHg 80%
    03:00 +20°C° 0.1 mm 4 mps 759 mmHg 82%
    04:00 +20°C° 0.1 mm 5 mps 759 mmHg 85%
    05:00 +20°C° 0.1 mm 5 mps 759 mmHg 88%
    06:00 +20°C° 0 mm 5 mps 759 mmHg 87%
    07:00 +20°C° 0 mm 5 mps 760 mmHg 86%
    08:00 +21°C° 0 mm 5 mps 760 mmHg 85%
    09:00 +23°C° 0 mm 5 mps 760 mmHg 72%
    10:00 +26°C° 0 mm 4 mps 760 mmHg 59%
    11:00 +28°C° 0 mm 4 mps 760 mmHg 46%
    12:00 +29°C° 0 mm 4 mps 759 mmHg 38%
    13:00 +30°C° 0 mm 4 mps 759 mmHg 31%
    14:00 +31°C° 0 mm 3 mps 758 mmHg 23%
    15:00 +30°C° 0 mm 3 mps 758 mmHg 24%
    16:00 +29°C° 0 mm 3 mps 758 mmHg 25%
    17:00 +28°C° 0 mm 2 mps 758 mmHg 26%
    18:00 +25°C° 0 mm 2 mps 759 mmHg 32%
    19:00 +21°C° 0 mm 3 mps 759 mmHg 38%
    20:00 +18°C° 0 mm 3 mps 759 mmHg 44%
    21:00 +17°C° 0 mm 3 mps 760 mmHg 48%
    22:00 +16°C° 0 mm 3 mps 760 mmHg 51%
    23:00 +16°C° 0 mm 3 mps 760 mmHg 55%

    4 April, Tuesday

    Time Temperature Precipitation Wind Pressure Humidity
    00:00 +14°C° 0 mm 3 mps 760 mmHg 60%
    01:00 +15°C° 0 mm 2 mps 760 mmHg 65%
    02:00 +14°C° 0 mm 2 mps 760 mmHg 70%
    03:00 +14°C° 0 mm 2 mps 760 mmHg 70%
    04:00 +14°C° 0 mm 2 mps 760 mmHg 71%
    05:00 +14°C° 0 mm 2 mps 760 mmHg 71%
    06:00 +16°C° 0 mm 2 mps 760 mmHg 64%
    07:00 +18°C° 0 mm 2 mps 760 mmHg 57%
    08:00 +20°C° 0 mm 2 mps 761 mmHg 50%
    09:00 +24°C° 0 mm 2 mps 760 mmHg 43%
    10:00 +26°C° 0 mm 2 mps 760 mmHg 35%
    11:00 +29°C° 0 mm 1 mps 760 mmHg 28%
    12:00 +29°C° 0 mm 2 mps 759 mmHg 26%
    13:00 +30°C° 0 mm 2 mps 758 mmHg 24%
    14:00 +30°C° 0 mm 2 mps 758 mmHg 22%
    15:00 +29°C° 0 mm 3 mps 758 mmHg 25%
    16:00 +28°C° 0 mm 3 mps 758 mmHg 28%
    17:00 +27°C° 0 mm 4 mps 758 mmHg 31%
    18:00 +25°C° 0 mm 4 mps 758 mmHg 37%
    19:00 +22°C° 0 mm 4 mps 758 mmHg 43%
    20:00 +21°C° 0 mm 4 mps 759 mmHg 48%
    21:00 +20°C° 0 mm 4 mps 759 mmHg 53%
    22:00 +20°C° 0 mm 4 mps 759 mmHg 57%
    23:00 +19°C° 0 mm 4 mps 759 mmHg 61%
    Show more